Overview Statistics Trail Chart Weather Telemetry Raw packets
 

This is the latest recevied weather packets stored in our database for station/object N5PUP-13. If no packets are shown the sender has not sent any weather packets the latest 10 day(s).

<< 105 106 107 108 109 110 111 >>
Time Temp. Humidity Pressure Rain* Wind** Luminosity Snow
1787778900 35° C 38% 1017.1 hPa 0 mm - - -
1787778600 36.11° C 37% 1017.1 hPa 0 mm - - -
1787778300 35° C 38% 1017.2 hPa 0 mm - - -
1787778005 35° C 38% 1017.3 hPa 0 mm - - -
1787777700 35.56° C 34% 1017.4 hPa 0 mm - - -
1787777400 35° C 35% 1017.5 hPa 0 mm - - -
1787777100 36.11° C 36% 1017.6 hPa 0 mm - - -
1787776800 35.56° C 37% 1017.7 hPa 0 mm - - -
1787776500 35.56° C 36% 1017.8 hPa 0 mm - - -
1787776200 34.44° C 39% 1017.9 hPa 0 mm - - -
1787775900 35.56° C 40% 1017.9 hPa 0 mm - - -
1787775600 35° C 39% 1017.9 hPa 0 mm - - -
1787775300 35.56° C 39% 1018 hPa 0 mm - - -
1787775000 35° C 40% 1018.1 hPa 0 mm - - -
1787774700 35.56° C 40% 1018.2 hPa 0 mm - - -
1787774406 35° C 41% 1018.2 hPa 0 mm - - -
1787774100 35.56° C 40% 1018.3 hPa 0 mm - - -
1787773800 35° C 40% 1018.4 hPa 0 mm - - -
1787773500 35.56° C 40% 1018.4 hPa 0 mm - - -
1787773200 35.56° C 41% 1018.5 hPa 0 mm - - -
1787772900 34.44° C 43% 1018.6 hPa 0 mm - - -
1787772600 33.33° C 42% 1018.7 hPa 0 mm - - -
1787772300 33.33° C 46% 1018.7 hPa 0 mm - - -
1787772000 33.89° C 45% 1018.7 hPa 0 mm - - -
1787771700 33.89° C 44% 1018.8 hPa 0 mm - - -

* Rain latest hour (hover to see other rain measurements)
** Current wind speed in m/s (hover to see current wind gust speed)